Location: North Evanston
(42.0634°N, 87.6976°W)
Time: 10:44:32
(UTC+00:00)

Transit 2A Rocket - Visible Passes

Search period start: 15 May 2026 00:00
Search period end: 25 May 2026 00:00
Orbit: 587 x 895 km, 66.7° (Epoch: 14 May)

Date Brightness Start Highest point End Pass type
(mag) Time Alt. Az. Time Alt. Az. Time Alt. Az.
15 May 8.2 02:38:36 10° W 02:41:56 16° NW 02:45:09 10° N visible
15 May 8.0 07:55:26 10° NNE 07:57:20 12° NE 07:59:12 10° ENE visible
15 May 4.7 09:35:58 10° NNW 09:40:31 81° ENE 09:44:48 10° SSE visible
16 May 7.7 01:51:15 10° WSW 01:55:49 25° NW 02:00:08 10° N visible
16 May 6.0 08:50:24 10° NNW 08:54:43 41° NE 08:58:47 10° SE visible
17 May 7.1 08:05:05 10° N 08:08:44 23° NE 08:12:13 10° E visible
17 May 4.9 09:47:02 10° NW 09:51:13 40° WSW 09:55:13 10° S visible
18 May 8.2 02:04:24 10° WNW 02:07:12 14° NW 02:09:55 10° N visible
18 May 7.7 07:20:11 10° N 07:22:35 14° NE 07:24:55 10° ENE visible
18 May 4.4 09:01:06 10° NNW 09:05:36 84° WSW 09:09:53 10° SSE visible
19 May 5.5 08:15:27 10° NNW 08:19:51 49° NE 08:24:01 10° SE visible
20 May 6.7 07:30:03 10° N 07:33:55 27° NE 07:37:36 10° ESE visible
20 May 5.2 09:12:16 10° NW 09:16:15 32° WSW 09:20:04 10° S visible
21 May 7.4 06:45:01 10° N 06:47:49 16° NE 06:50:31 10° E visible
21 May 4.4 08:26:14 10° NW 08:30:41 68° WSW 08:34:44 11° SSE visible
22 May 5.0 07:40:31 10° NNW 07:44:57 59° NE 07:48:01 18° SE visible
22 May 6.3 09:24:37 10° WNW 09:26:39 13° WSW 09:27:34 12° WSW visible
23 May 6.2 06:55:03 10° NNW 06:59:05 31° NE 07:01:59 15° ESE visible
23 May 5.4 08:37:33 10° NW 08:41:15 27° WSW 08:41:34 26° WSW visible
24 May 7.1 06:09:54 10° N 06:13:02 18° NE 06:16:03 10° E visible
24 May 4.5 07:51:23 10° NW 07:55:44 55° WSW 07:55:54 55° SW visible
